TimeEST,TemperatureF,Dew PointF,Humidity,Sea Level PressureIn,VisibilityMPH,Wind Direction,Wind SpeedMPH,Gust SpeedMPH,PrecipitationIn,Events,Conditions,WindDirDegrees,DateUTC
12:54 AM,28.9,24.1,82,30.21,10.0,Calm,Calm,-,N/A,,Partly Cloudy,0,2012-11-21 05:54:00
1:54 AM,30.0,25.0,82,30.22,10.0,Calm,Calm,-,N/A,,Scattered Clouds,0,2012-11-21 06:54:00
2:54 AM,30.0,25.0,82,30.22,10.0,WNW,3.5,-,N/A,,Partly Cloudy,290,2012-11-21 07:54:00
3:54 AM,28.9,25.0,85,30.23,10.0,Calm,Calm,-,N/A,,Clear,0,2012-11-21 08:54:00
4:54 AM,30.0,26.1,85,30.23,10.0,Calm,Calm,-,N/A,,Clear,0,2012-11-21 09:54:00
5:54 AM,28.9,25.0,85,30.25,10.0,Calm,Calm,-,N/A,,Partly Cloudy,0,2012-11-21 10:54:00
6:54 AM,27.0,24.1,89,30.27,10.0,Calm,Calm,-,N/A,,Clear,0,2012-11-21 11:54:00
7:54 AM,30.9,27.0,85,30.29,10.0,WNW,3.5,-,N/A,,Mostly Cloudy,290,2012-11-21 12:54:00
8:54 AM,35.1,26.1,70,30.30,10.0,Calm,Calm,-,0.00,,Mostly Cloudy,0,2012-11-21 13:54:00
9:54 AM,39.9,27.0,60,30.30,10.0,Calm,Calm,-,N/A,,Clear,0,2012-11-21 14:54:00
10:37 AM,42.8,28.4,57,30.27,10.0,Calm,Calm,-,0.00,Rain,Light Rain,0,2012-11-21 15:37:00
10:45 AM,42.8,28.4,57,30.27,10.0,Calm,Calm,-,0.00,Rain,Light Rain,0,2012-11-21 15:45:00
10:54 AM,43.0,28.9,58,30.28,10.0,Calm,Calm,-,0.00,,Partly Cloudy,0,2012-11-21 15:54:00
11:54 AM,44.1,30.9,60,30.26,10.0,Calm,Calm,-,N/A,,Scattered Clouds,0,2012-11-21 16:54:00
12:54 PM,46.0,33.1,61,30.25,10.0,Calm,Calm,-,0.00,,Clear,0,2012-11-21 17:54:00
1:54 PM,48.9,33.1,54,30.25,10.0,Calm,Calm,-,N/A,,Clear,0,2012-11-21 18:54:00
2:54 PM,48.0,33.1,56,30.25,10.0,Calm,Calm,-,N/A,,Clear,0,2012-11-21 19:54:00
3:54 PM,41.0,32.0,70,30.25,10.0,Calm,Calm,-,0.00,,Clear,0,2012-11-21 20:54:00
4:54 PM,34.0,30.0,85,30.27,10.0,Calm,Calm,-,N/A,,Clear,0,2012-11-21 21:54:00
5:54 PM,28.9,27.0,92,30.28,10.0,Calm,Calm,-,N/A,,Clear,0,2012-11-21 22:54:00
6:54 PM,28.0,26.1,92,30.29,10.0,Calm,Calm,-,0.00,,Clear,0,2012-11-21 23:54:00
7:54 PM,27.0,25.0,92,30.30,8.0,Calm,Calm,-,N/A,,Clear,0,2012-11-22 00:54:00
8:54 PM,26.1,24.1,92,30.30,9.0,Calm,Calm,-,N/A,,Clear,0,2012-11-22 01:54:00
9:34 PM,24.8,23.0,93,30.28,1.5,NW,3.5,-,N/A,,Partly Cloudy,310,2012-11-22 02:34:00
9:36 PM,24.8,23.0,93,30.28,0.8,Calm,Calm,-,N/A,,Mist,0,2012-11-22 02:36:00
9:47 PM,24.8,23.0,93,30.27,1.0,Calm,Calm,-,N/A,,Mist,0,2012-11-22 02:47:00
9:50 PM,24.8,23.0,93,30.27,1.5,Calm,Calm,-,N/A,,Scattered Clouds,0,2012-11-22 02:50:00
9:54 PM,25.0,23.0,92,30.29,2.5,Calm,Calm,-,N/A,,Scattered Clouds,0,2012-11-22 02:54:00
10:01 PM,24.8,24.8,100,30.27,6.0,Calm,Calm,-,N/A,,Scattered Clouds,0,2012-11-22 03:01:00
10:17 PM,24.8,23.0,93,30.27,6.0,Calm,Calm,-,N/A,,Mostly Cloudy,0,2012-11-22 03:17:00
10:39 PM,24.8,24.8,100,30.27,1.8,Calm,Calm,-,N/A,,Overcast,0,2012-11-22 03:39:00
10:44 PM,24.8,24.8,100,30.27,0.8,Calm,Calm,-,N/A,,Mist,0,2012-11-22 03:44:00
10:54 PM,25.0,24.1,96,30.29,0.2,Calm,Calm,-,N/A,Fog,Light Freezing Fog,0,2012-11-22 03:54:00
11:54 PM,24.1,21.9,91,30.29,0.2,Calm,Calm,-,0.00,Fog,Light Freezing Fog,0,2012-11-22 04:54:00